Location: Croagnes
(43.9363°N, 5.3265°E)
Time: 02:40:56
(UTC+00:00)

STARLINK-1340 - Pass Details

Date: 06 June 2020
Orbit: 378 x 381 km, 53.0° (Epoch: 09 July)

Event Time Altitude Azimuth Distance (km) Brightness Sun altitude
Rises 20:36:52 0° 210° (SSW) 2,238 6.6 -11.5°
Reaches altitude 10° 20:39:03 10° 199° (SSW) 1,391 5.4 -11.8°
Maximum altitude 20:41:48 29° 136° (SE) 730 3.7 -12.1°
Drops below altitude 10° 20:44:34 10° 74° (ENE) 1,401 5.5 -12.4°
Sets 20:46:46 0° 63° (ENE) 2,259 6.6 -12.7°
